Temp
19 18 18 18 18 17 17 17 17 17 17 17 17 17 17 17 18 18 18 18 18 18 18 18 17 16 17 17 16 17 16 16 16 16 15 15 15 16 16 16 16 16 16 16 16 16 16 16 16 16 16 16 16 16 16 16 16 15 15 14 14 14 14 14 14 13 13 13 13 13 13 14 14 14
20 18 18 18 18 18 18 18 17 17 18 17 17 17 17 17 17 17 18 17 17 17 17 18 18 17 17 17 16 16 16 16 16 16 15 15 15 16 16 16 16 16 16 16 16 16 16 16 16 16 16 16 16 16 15 15 15 15 15 14 14 14 14 14 14 14 13 13 13 13 13 13 13 14
20 20 19 18 19 18 19 19 18 18 19 18 17 17 16 16 17 17 17 17 17 17 17 17 17 17 17 16 16 15 15 16 16 16 15 15 16 16 16 16 16 16 16 16 16 16 16 16 16 16 16 16 15 15 15 15 15 15 15 14 14 14 14 14 14 14 14 13 13 13 13 13 13 13
20 20 20 19 19 19 19 19 18 19 19 18 17 17 16 16 16 16 16 17 17 16 17 17 16 16 16 16 16 16 15 15 16 15 15 16 15 15 15 15 16 15 16 15 15 16 16 16 16 16 16 15 15 15 15 14 14 14 14 14 14 14 14 14 14 14 14 14 13 13 13 13 13 13
20 20 20 20 20 20 19 19 19 18 19 19 18 17 16 16 16 16 16 16 17 16 16 16 16 16 16 16 16 16 15 15 16 15 15 15 15 15 15 15 15 15 15 15 15 16 16 16 16 15 15 15 15 15 15 14 14 14 14 14 14 14 14 14 14 14 14 14 13 13 13 13 13 13
20 20 20 20 20 20 20 20 19 18 18 18 18 17 17 16 16 16 16 16 16 17 16 16 16 16 16 16 16 16 15 15 15 15 15 15 15 15 15 15 14 15 15 15 15 16 16 16 16 15 15 15 15 15 15 14 14 14 14 13 13 13 14 14 14 14 13 13 13 13 13 13 13 13
20 20 20 20 19 20 20 20 19 18 18 18 17 17 17 16 16 16 17 16 16 16 16 16 16 16 16 16 16 16 16 15 15 15 15 15 15 15 15 15 15 15 15 15 15 16 16 16 16 15 15 15 15 15 15 14 14 13 13 13 13 13 13 13 13 13 13 13 13 13 13 13 13 13
20 20 20 20 19 20 20 20 19 19 19 18 18 17 17 17 16 16 16 16 16 16 16 16 16 16 16 16 16 16 16 16 16 15 15 15 15 15 15 15 15 15 15 15 16 16 16 15 15 15 15 15 15 14 14 14 14 13 13 13 13 13 13 13 13 13 13 13 13 13 13 13 13 13
21 20 20 20 20 20 20 20 19 19 19 19 19 18 18 18 17 16 16 16 16 16 16 16 16 16 16 15 15 16 16 16 15 15 15 15 15 15 15 15 14 15 15 15 15 16 15 15 15 15 15 15 14 14 14 14 13 13 13 13 13 13 13 13 13 13 13 13 13 13 13 13 13 13
21 21 21 20 20 20 20 20 20 20 20 20 20 19 19 18 18 17 16 16 17 16 16 16 16 16 16 15 15 16 16 16 15 15 15 15 15 15 15 15 14 14 14 14 14 14 15 15 15 15 15 14 14 14 14 13 13 13 12 12 12 12 12 12 13 13 12 12 12 12 13 13 13 13
21 21 21 20 20 20 20 20 20 20 20 20 20 20 19 18 18 17 16 16 17 17 16 16 16 16 15 15 15 16 16 16 16 15 15 15 14 14 14 14 14 14 14 14 14 14 14 14 14 14 14 14 14 14 13 13 13 12 12 12 12 12 12 12 12 12 12 12 12 12 12 12 12 12
21 21 21 21 20 20 21 20 20 20 20 20 20 20 19 19 18 17 16 16 17 16 16 16 16 16 16 16 15 15 16 16 16 15 15 15 15 14 14 14 14 15 15 15 14 14 14 14 13 13 13 13 13 13 13 12 12 11 11 12 12 12 12 12 12 12 12 12 12 11 11 12 12 12
21 21 21 21 21 20 21 21 20 20 21 20 20 20 19 19 18 18 17 16 16 16 16 16 16 16 16 16 15 15 15 15 15 15 15 15 15 14 14 14 14 15 15 14 14 14 14 13 13 12 12 12 12 12 12 12 11 11 11 11 11 11 11 11 11 11 11 11 11 11 11 11 11 12
21 21 21 21 21 21 21 21 20 20 20 20 20 20 20 19 19 18 17 16 16 16 16 16 16 16 16 16 16 15 15 15 15 15 15 15 15 14 14 14 14 14 14 14 14 14 14 13 13 13 12 12 11 11 11 11 11 11 11 11 11 10 10 10 10 11 11 11 11 11 11 11 11 11
22 21 21 21 21 21 21 21 20 19 20 20 20 19 19 19 19 18 17 16 16 16 16 16 16 16 16 16 16 15 15 15 15 14 15 15 15 15 14 14 14 14 14 14 14 15 14 13 13 13 12 11 11 11 11 11 11 11 11 11 11 10 10 10 10 10 10 11 11 11 11 11 11 11
21 21 21 21 21 21 21 21 20 19 19 20 19 19 19 19 18 18 17 16 16 16 16 16 16 16 16 16 16 16 16 15 15 14 15 15 15 14 14 14 14 13 13 14 14 14 13 12 12 12 12 11 11 11 11 11 11 11 11 11 11 11 11 11 10 10 10 11 11 11 11 11 11 11
21 21 21 21 21 21 21 21 20 20 19 19 19 18 18 18 18 17 17 16 16 16 16 16 16 16 16 16 16 16 16 16 15 15 15 15 14 14 14 14 14 13 13 14 13 13 13 12 12 12 12 11 11 11 10 10 11 11 11 11 11 11 11 10 10 10 10 10 10 10 10 10 10 10
21 21 21 21 21 21 21 21 20 20 19 19 19 18 18 18 18 18 17 17 16 16 16 16 16 16 16 16 16 16 16 16 15 15 15 15 14 14 14 14 14 14 14 13 13 12 12 12 12 12 12 11 11 11 10 10 11 11 11 11 11 11 10 10 10 9 9 9 9 9 9 9 10 10
21 21 21 21 21 21 21 21 21 20 19 19 18 18 18 18 18 18 17 17 16 16 16 16 16 16 16 16 16 16 16 16 15 15 15 14 14 14 14 14 14 14 13 12 12 12 12 12 12 12 12 11 11 11 10 10 11 11 11 11 11 10 10 10 10 9 9 9 9 9 9 9 9 9
21 21 21 21 21 21 21 21 21 20 19 19 18 18 18 18 18 18 17 17 16 16 16 16 16 15 15 16 16 16 16 15 15 15 14 14 14 14 14 14 13 13 13 12 12 11 11 12 12 11 11 11 11 11 10 10 10 11 11 11 11 11 10 10 10 10 10 9 9 9 9 9 9 9
22 21 21 21 21 21 21 21 21 20 19 19 18 18 18 18 18 18 17 17 16 16 16 16 16 15 15 15 16 16 15 15 15 14 14 14 14 13 13 13 13 14 13 13 12 11 11 11 11 11 11 11 11 11 11 10 10 10 11 10 10 10 10 10 10 10 10 10 9 9 9 9 9 9
22 21 21 21 21 21 21 21 20 20 20 19 18 18 18 18 17 17 16 16 16 16 16 15 15 15 15 15 15 15 15 15 14 14 14 14 13 13 13 13 13 13 13 13 12 11 11 11 11 11 11 11 11 11 11 10 10 10 10 10 9 9 9 9 10 10 10 9 9 9 9 9 9 9
22 21 21 21 21 21 20 21 20 20 19 19 18 18 17 17 17 17 16 16 15 16 16 15 15 15 14 15 15 15 15 14 14 14 14 13 13 13 13 13 13 13 13 12 11 11 11 11 10 10 10 11 11 11 11 10 10 10 10 9 9 9 9 9 9 9 9 9 9 9 9 9 9 9
22 21 20 20 21 21 20 20 20 20 19 18 18 18 17 17 17 17 16 15 15 15 15 15 15 15 14 14 14 14 14 14 14 14 14 13 13 13 13 13 13 13 13 12 11 11 10 10 10 10 10 10 11 11 11 10 10 10 10 9 9 10 9 9 9 9 9 9 9 9 9 9 9 9
22 22 20 19 20 21 21 20 20 20 19 18 18 17 17 17 17 16 16 15 15 15 15 15 15 14 14 14 14 14 14 14 14 14 14 13 13 13 13 13 13 13 12 12 11 11 10 10 10 10 10 10 10 10 10 10 10 10 10 10 10 10 10 9 10 10 10 9 9 9 9 9 10 10
23 22 21 20 21 21 21 20 20 20 19 18 17 17 17 17 16 16 16 15 15 15 15 14 14 14 14 13 13 13 14 14 14 14 13 13 13 12 12 12 12 12 11 11 11 11 10 10 9 9 9 9 10 10 10 10 10 10 10 10 10 10 10 10 10 10 10 10 10 9 9 9 10 10
23 22 22 22 22 22 22 21 20 20 19 18 17 16 16 16 16 16 16 15 15 15 15 14 14 14 14 13 13 13 13 13 13 13 13 12 13 13 12 12 12 11 11 11 10 10 10 10 9 9 9 9 9 9 10 10 10 10 10 10 10 10 10 10 10 10 10 10 10 9 9 9 9 9
21 21 21 21 21 22 22 21 20 19 18 18 17 16 16 16 15 15 15 15 15 15 15 15 15 14 13 13 13 13 13 13 13 13 12 12 13 13 12 12 11 11 11 11 10 10 9 9 9 9 8 8 9 9 9 10 10 10 10 10 10 10 10 10 10 10 10 9 9 9 9 9 9 9
19 19 19 19 20 21 22 21 20 19 18 18 17 16 16 15 15 15 15 14 14 15 15 15 14 13 13 13 13 13 13 13 13 13 13 12 13 12 12 12 11 11 11 11 10 10 9 9 9 9 9 8 8 9 9 9 9 10 10 10 10 10 10 10 10 10 10 9 9 9 9 9 9 9
18 18 18 18 19 21 22 22 21 20 19 18 17 16 15 16 16 15 15 14 15 15 15 14 14 13 12 13 13 13 13 13 13 13 13 13 12 12 11 11 11 11 10 10 9 9 9 9 9 9 9 9 8 8 9 9 9 9 9 10 10 10 10 10 10 10 10 10 9 9 9 9 9 9
18 18 18 18 19 20 21 21 21 20 19 17 16 16 15 15 15 15 14 14 15 15 15 14 13 13 12 12 13 13 13 13 13 13 13 12 12 11 11 10 10 10 10 10 9 9 9 9 9 9 9 9 9 9 8 8 9 9 9 10 10 10 10 10 10 10 10 9 9 9 9 8 8 8
18 18 18 17 17 18 18 18 18 18 18 17 16 16 15 15 14 14 14 14 15 15 15 14 13 12 12 12 13 14 13 13 13 13 13 12 11 11 11 10 10 11 11 10 10 9 9 9 9 10 10 9 9 9 9 8 8 9 10 10 10 10 10 10 10 10 9 9 8 8 8 8 8 9
17 17 17 17 17 17 17 17 17 17 17 16 15 15 15 14 14 13 14 14 14 15 14 13 12 12 12 13 14 13 13 13 13 12 12 12 11 11 11 10 10 11 11 11 10 10 9 9 9 10 10 10 9 9 9 8 9 9 10 10 10 10 10 10 10 9 9 8 8 8 8 8 8 9
17 16 17 17 17 17 17 16 16 16 16 15 14 14 14 14 14 13 14 14 14 14 14 13 12 12 13 13 14 13 13 13 12 12 12 12 11 11 10 10 11 11 11 10 10 10 9 9 9 9 9 9 9 9 9 9 9 9 10 10 10 10 10 9 9 9 8 8 8 8 8 8 8 8
16 16 16 16 17 17 17 16 16 16 16 15 15 15 15 15 14 14 14 14 14 14 14 13 13 13 13 13 14 13 13 12 12 12 11 11 10 10 10 11 11 11 11 10 10 10 9 9 9 9 9 9 9 10 10 10 9 9 10 10 10 9 9 9 9 8 8 8 8 8 8 8 8 8
16 16 16 16 16 16 16 16 16 15 15 15 15 15 15 14 14 14 14 14 14 14 14 13 13 13 13 13 13 13 12 12 12 12 11 10 10 10 10 11 11 11 10 10 10 10 9 9 9 9 10 10 10 11 11 11 10 9 9 9 9 9 9 9 8 8 8 8 8 8 8 8 8 8
16 16 16 16 16 16 16 15 15 15 15 15 15 15 15 15 14 14 14 14 14 14 14 13 13 13 13 13 13 12 12 12 12 12 12 11 10 10 10 11 10 10 10 10 10 9 9 9 9 9 10 10 11 11 12 11 10 10 9 9 9 9 9 8 8 8 8 8 8 8 8 8 8 8
16 16 16 16 16 16 15 15 15 15 15 16 16 15 15 15 14 14 14 14 14 14 14 13 13 13 13 13 12 12 12 12 12 12 12 12 11 11 11 11 11 10 10 10 10 9 9 9 9 9 10 10 11 11 11 11 10 10 9 9 9 9 8 8 8 8 8 8 8 8 7 7 7 8
16 16 16 15 15 15 15 15 15 15 16 16 16 15 15 15 14 14 14 14 14 14 13 13 13 13 13 13 12 12 12 12 12 12 12 12 12 11 11 11 11 11 10 10 10 10 9 9 9 9 10 10 10 10 10 10 10 10 10 9 9 9 8 8 8 8 8 8 8 7 7 7 7 7
16 16 15 15 15 15 15 15 15 16 16 16 15 15 15 15 14 14 14 14 14 14 13 13 12 12 12 12 12 12 12 12 12 12 12 12 11 11 11 10 11 10 10 10 10 10 10 10 10 9 9 9 10 10 9 9 9 10 10 10 10 9 9 8 8 8 8 8 7 7 7 7 7 7
15 15 15 14 14 14 15 15 16 16 16 15 15 15 15 14 14 14 14 14 14 14 13 13 12 12 13 12 12 12 12 13 13 12 12 11 11 11 10 10 10 10 10 10 10 10 10 10 9 10 10 10 9 9 9 9 10 10 10 10 10 9 9 9 8 8 8 8 7 7 7 7 7 7
15 14 14 14 14 15 16 16 16 16 16 15 15 15 14 14 14 14 14 14 14 14 13 12 12 13 13 12 12 12 12 13 12 12 11 11 11 11 10 9 10 10 10 10 10 10 10 9 9 10 10 9 9 8 9 9 10 10 10 10 10 10 9 9 8 8 8 8 7 7 7 6 6 6
14 14 13 14 14 15 16 16 16 16 16 15 15 14 14 14 14 14 14 14 14 14 13 12 12 13 12 12 12 12 12 12 12 11 11 11 11 11 10 9 9 10 10 10 10 10 9 9 9 9 9 9 9 9 9 10 10 10 10 10 10 10 9 9 8 8 8 8 7 7 6 6 6 6
14 14 14 14 15 15 15 15 15 15 15 15 14 14 14 14 14 14 14 14 14 13 13 12 12 12 12 12 12 12 12 12 12 11 11 11 11 11 10 10 10 10 10 10 10 9 9 9 9 9 9 9 9 9 9 10 10 10 10 10 9 9 9 9 9 8 8 8 8 7 7 6 6 6
14 14 14 15 15 15 15 15 15 15 14 14 14 14 14 14 14 14 14 14 14 13 13 12 12 12 12 12 12 11 11 11 11 11 11 11 10 10 10 10 10 10 9 9 9 9 9 9 9 9 9 9 9 9 9 9 9 9 9 9 10 10 9 9 8 8 8 8 8 7 7 6 6 6
Height
1578 1579 1579 1580 1581 1582 1582 1583 1584 1585 1585 1585 1586 1587 1588 1588 1588 1588 1589 1589 1589 1589 1590 1589 1589 1589 1588 1588 1588 1588 1589 1589 1589 1590 1590 1590 1590 1589 1590 1590 1590 1590 1590 1590 1590 1590 1589 1589 1588 1588 1587 1586 1585 1584 1583 1582 1581 1580 1578 1578 1577 1576 1575 1575 1574 1574 1573 1572 1572 1571 1570 1570 1569 1569
1576 1577 1578 1578 1579 1580 1580 1581 1582 1582 1582 1583 1584 1584 1585 1586 1587 1587 1587 1587 1587 1587 1588 1588 1588 1587 1587 1587 1587 1587 1587 1587 1587 1588 1588 1588 1588 1588 1589 1589 1589 1589 1589 1589 1589 1588 1588 1587 1586 1585 1585 1584 1583 1582 1581 1580 1579 1578 1576 1576 1575 1574 1573 1572 1572 1571 1570 1570 1570 1569 1568 1568 1567 1567
1574 1575 1576 1576 1577 1578 1578 1579 1580 1580 1580 1581 1581 1582 1583 1584 1585 1585 1586 1586 1586 1586 1586 1587 1586 1585 1585 1585 1585 1585 1585 1585 1585 1586 1586 1586 1587 1587 1587 1587 1587 1588 1587 1587 1587 1586 1585 1584 1584 1583 1582 1581 1580 1579 1578 1577 1576 1575 1574 1573 1572 1572 1571 1570 1569 1568 1567 1567 1567 1567 1566 1565 1565 1565
1572 1573 1574 1575 1575 1576 1576 1577 1577 1577 1578 1579 1579 1580 1581 1582 1582 1583 1584 1584 1584 1584 1584 1585 1584 1584 1584 1583 1584 1584 1584 1584 1584 1584 1584 1584 1585 1585 1585 1585 1585 1586 1586 1585 1585 1584 1583 1582 1581 1580 1579 1578 1577 1576 1575 1574 1574 1573 1572 1571 1570 1569 1568 1567 1567 1566 1565 1564 1564 1564 1564 1563 1563 1562
1570 1571 1572 1573 1573 1574 1574 1575 1575 1576 1576 1577 1577 1578 1578 1579 1579 1580 1581 1582 1582 1582 1582 1582 1583 1582 1582 1582 1582 1582 1583 1582 1582 1583 1583 1583 1583 1583 1584 1584 1583 1583 1583 1583 1582 1582 1581 1580 1578 1577 1576 1575 1574 1573 1572 1571 1571 1570 1569 1569 1568 1567 1566 1565 1564 1563 1563 1562 1561 1561 1561 1560 1560 1560
1567 1569 1570 1571 1571 1572 1572 1572 1573 1574 1574 1575 1575 1575 1575 1576 1576 1576 1577 1579 1579 1580 1579 1580 1580 1580 1580 1580 1580 1580 1581 1582 1581 1581 1581 1581 1581 1581 1582 1582 1581 1580 1581 1581 1580 1579 1578 1577 1576 1574 1573 1572 1571 1570 1569 1569 1568 1567 1567 1566 1565 1565 1564 1563 1562 1561 1560 1559 1559 1558 1558 1557 1557 1557
1565 1566 1567 1568 1569 1569 1569 1570 1571 1571 1572 1573 1573 1573 1574 1574 1574 1574 1574 1575 1576 1577 1577 1577 1578 1578 1578 1578 1578 1578 1579 1580 1579 1579 1579 1579 1580 1579 1579 1580 1580 1578 1578 1578 1577 1577 1575 1574 1573 1572 1571 1570 1569 1568 1567 1566 1565 1564 1564 1563 1563 1562 1561 1560 1559 1558 1558 1557 1556 1556 1555 1554 1554 1554
1562 1563 1564 1565 1566 1566 1567 1567 1568 1569 1570 1570 1571 1571 1572 1572 1572 1572 1572 1572 1572 1574 1575 1575 1576 1576 1576 1576 1576 1576 1577 1577 1577 1578 1578 1578 1578 1578 1577 1578 1577 1576 1576 1576 1575 1574 1573 1571 1570 1569 1568 1567 1566 1565 1564 1564 1562 1562 1561 1560 1560 1559 1558 1557 1556 1556 1555 1554 1553 1552 1552 1551 1551 1550
1559 1560 1561 1562 1563 1563 1564 1564 1565 1566 1567 1567 1568 1569 1569 1569 1570 1570 1570 1569 1570 1571 1572 1573 1573 1574 1574 1575 1575 1574 1575 1575 1575 1575 1576 1576 1576 1576 1576 1576 1575 1574 1573 1573 1572 1571 1570 1568 1567 1567 1566 1564 1563 1562 1561 1561 1560 1559 1558 1557 1556 1555 1554 1554 1553 1552 1551 1550 1549 1549 1548 1547 1547 1547
1556 1557 1558 1559 1559 1560 1560 1561 1562 1562 1563 1564 1564 1565 1566 1566 1567 1567 1568 1568 1568 1568 1569 1570 1571 1571 1572 1573 1573 1572 1573 1573 1573 1573 1574 1573 1573 1573 1573 1573 1573 1572 1571 1570 1569 1568 1567 1566 1564 1563 1563 1562 1560 1559 1558 1557 1556 1555 1555 1554 1553 1552 1551 1550 1549 1548 1547 1546 1546 1545 1544 1544 1543 1543
1552 1553 1554 1555 1556 1556 1557 1558 1559 1559 1560 1561 1561 1562 1563 1563 1564 1565 1565 1565 1566 1566 1567 1568 1569 1569 1570 1570 1570 1571 1571 1571 1571 1571 1571 1571 1571 1570 1569 1570 1570 1570 1570 1568 1567 1566 1565 1564 1562 1560 1560 1559 1557 1557 1555 1554 1553 1552 1551 1550 1549 1549 1547 1546 1546 1544 1543 1543 1542 1542 1541 1540 1540 1539
1548 1549 1550 1551 1552 1552 1553 1554 1555 1556 1557 1557 1558 1559 1560 1561 1561 1562 1563 1563 1564 1564 1565 1566 1566 1567 1567 1568 1568 1569 1569 1569 1569 1569 1569 1569 1569 1569 1568 1567 1567 1567 1567 1567 1566 1564 1562 1562 1560 1558 1557 1556 1554 1553 1552 1551 1550 1549 1548 1547 1546 1545 1544 1543 1542 1541 1540 1540 1539 1538 1538 1538 1537 1536
1544 1545 1546 1547 1548 1548 1549 1551 1552 1552 1553 1554 1555 1556 1557 1558 1559 1559 1560 1560 1561 1562 1562 1563 1563 1564 1564 1565 1566 1566 1566 1566 1567 1567 1567 1567 1567 1567 1567 1566 1565 1564 1564 1564 1563 1562 1561 1560 1559 1557 1555 1554 1552 1551 1551 1550 1549 1547 1545 1545 1544 1543 1542 1541 1540 1539 1538 1537 1536 1536 1535 1535 1534 1534
1540 1541 1542 1543 1544 1545 1545 1547 1549 1549 1550 1551 1552 1553 1554 1555 1556 1557 1557 1558 1558 1559 1559 1560 1561 1561 1561 1562 1563 1563 1564 1564 1564 1564 1564 1565 1565 1564 1564 1564 1563 1562 1561 1561 1560 1559 1558 1557 1556 1555 1553 1552 1551 1551 1550 1549 1548 1546 1544 1543 1541 1540 1539 1538 1537 1536 1535 1535 1534 1533 1532 1532 1532 1531
1535 1537 1538 1539 1540 1541 1542 1544 1545 1547 1548 1549 1550 1551 1552 1553 1554 1555 1556 1556 1557 1557 1557 1558 1559 1559 1559 1559 1560 1561 1561 1562 1562 1562 1562 1562 1562 1562 1562 1562 1561 1560 1559 1558 1557 1557 1556 1555 1553 1552 1551 1550 1550 1549 1548 1546 1545 1544 1542 1540 1539 1537 1536 1536 1535 1534 1533 1532 1531 1530 1530 1529 1529 1528
1531 1533 1534 1535 1535 1536 1538 1540 1542 1543 1544 1546 1547 1548 1549 1551 1552 1553 1554 1555 1556 1556 1556 1556 1556 1556 1556 1557 1557 1558 1559 1559 1559 1559 1559 1559 1559 1560 1559 1559 1559 1558 1556 1555 1555 1555 1554 1553 1552 1551 1550 1549 1548 1547 1545 1543 1542 1541 1539 1537 1536 1535 1534 1533 1532 1531 1530 1529 1528 1527 1527 1526 1525 1525
1527 1528 1530 1531 1531 1532 1534 1537 1539 1540 1541 1542 1544 1546 1547 1548 1549 1551 1552 1553 1554 1554 1555 1555 1555 1555 1554 1554 1554 1555 1556 1556 1557 1557 1557 1557 1557 1557 1556 1556 1557 1555 1554 1553 1553 1553 1553 1552 1551 1550 1549 1548 1546 1545 1542 1540 1539 1538 1536 1535 1534 1532 1531 1530 1529 1528 1527 1527 1526 1525 1524 1523 1522 1522
1523 1524 1526 1526 1527 1528 1530 1533 1535 1535 1537 1539 1541 1543 1543 1544 1545 1547 1549 1550 1551 1552 1552 1552 1553 1553 1552 1552 1552 1552 1553 1553 1554 1554 1555 1555 1554 1554 1554 1553 1553 1552 1551 1551 1551 1551 1551 1551 1550 1549 1548 1546 1544 1543 1541 1539 1537 1536 1535 1533 1532 1531 1530 1528 1527 1526 1525 1525 1524 1523 1522 1521 1520 1520
1518 1520 1521 1522 1523 1524 1526 1529 1531 1532 1533 1535 1538 1539 1540 1541 1542 1543 1545 1547 1548 1549 1549 1550 1551 1551 1550 1550 1549 1549 1550 1551 1551 1551 1552 1552 1552 1551 1551 1551 1551 1550 1549 1548 1549 1550 1550 1550 1549 1547 1546 1544 1543 1542 1540 1537 1536 1535 1534 1532 1531 1530 1528 1527 1526 1525 1524 1523 1522 1521 1520 1519 1519 1518
1513 1514 1515 1516 1518 1520 1521 1524 1527 1528 1529 1531 1534 1535 1536 1538 1539 1540 1542 1543 1545 1546 1547 1547 1548 1549 1548 1547 1547 1547 1548 1548 1548 1549 1549 1549 1549 1549 1549 1549 1549 1550 1549 1547 1547 1548 1548 1548 1547 1545 1544 1542 1541 1539 1538 1537 1535 1533 1532 1531 1529 1528 1526 1525 1524 1523 1522 1521 1520 1519 1518 1518 1517 1516
1507 1508 1508 1510 1512 1515 1516 1518 1522 1524 1525 1528 1530 1531 1533 1534 1536 1537 1538 1540 1542 1544 1544 1545 1546 1546 1546 1545 1545 1545 1545 1545 1546 1546 1547 1547 1547 1547 1547 1547 1548 1549 1549 1548 1546 1546 1546 1546 1545 1543 1542 1540 1538 1538 1537 1536 1534 1532 1530 1529 1527 1526 1525 1524 1522 1521 1520 1519 1518 1517 1516 1516 1514 1513
1500 1501 1502 1503 1506 1509 1511 1513 1517 1519 1521 1523 1525 1526 1529 1530 1531 1533 1535 1536 1539 1541 1542 1542 1543 1544 1544 1544 1543 1543 1543 1543 1543 1544 1545 1545 1545 1545 1545 1546 1546 1547 1548 1546 1544 1544 1545 1544 1543 1541 1540 1538 1537 1537 1536 1535 1533 1531 1529 1528 1526 1525 1523 1522 1521 1519 1518 1517 1516 1515 1514 1513 1512 1511
1493 1495 1496 1497 1500 1504 1506 1508 1511 1513 1516 1519 1519 1521 1524 1525 1526 1529 1531 1532 1534 1537 1539 1540 1540 1541 1542 1542 1541 1541 1541 1541 1541 1542 1542 1543 1543 1543 1543 1544 1544 1545 1546 1544 1542 1542 1543 1542 1541 1540 1538 1537 1536 1535 1535 1533 1532 1530 1529 1527 1526 1524 1522 1520 1519 1518 1517 1516 1515 1514 1513 1511 1510 1509
1487 1490 1491 1492 1494 1498 1500 1502 1505 1508 1511 1514 1515 1516 1519 1520 1522 1524 1526 1527 1529 1533 1536 1537 1538 1539 1539 1540 1539 1538 1538 1538 1539 1539 1540 1540 1540 1540 1541 1542 1543 1544 1545 1542 1540 1540 1540 1539 1539 1538 1537 1536 1534 1533 1533 1532 1531 1529 1528 1526 1525 1523 1521 1519 1518 1516 1515 1514 1512 1511 1510 1509 1508 1507
1481 1483 1486 1486 1488 1492 1495 1497 1501 1503 1507 1509 1511 1512 1514 1516 1518 1521 1523 1523 1525 1529 1533 1534 1535 1536 1537 1538 1537 1536 1535 1536 1536 1537 1537 1538 1537 1537 1539 1540 1541 1542 1542 1540 1538 1538 1537 1537 1536 1536 1535 1534 1533 1532 1531 1530 1529 1528 1526 1525 1524 1522 1520 1518 1517 1515 1514 1512 1510 1509 1508 1507 1506 1505
1475 1477 1479 1481 1482 1486 1490 1494 1497 1499 1503 1505 1507 1508 1510 1513 1515 1517 1519 1520 1522 1525 1529 1531 1532 1533 1534 1536 1535 1534 1533 1533 1534 1534 1535 1535 1535 1536 1536 1537 1538 1539 1539 1537 1536 1535 1534 1534 1534 1533 1533 1532 1531 1530 1529 1528 1527 1526 1525 1524 1522 1520 1519 1517 1515 1514 1512 1511 1509 1508 1506 1504 1503 1502
1467 1470 1472 1474 1476 1479 1484 1489 1492 1495 1498 1501 1502 1504 1506 1508 1511 1513 1516 1517 1518 1520 1524 1527 1528 1530 1532 1534 1533 1531 1531 1531 1531 1532 1532 1532 1533 1533 1533 1534 1534 1535 1536 1534 1533 1532 1531 1531 1531 1530 1530 1530 1529 1528 1527 1526 1525 1524 1523 1522 1521 1519 1517 1516 1514 1512 1511 1509 1508 1506 1504 1503 1501 1499
1461 1463 1465 1465 1467 1472 1477 1482 1486 1489 1492 1496 1498 1499 1501 1504 1506 1509 1511 1513 1513 1515 1518 1521 1523 1526 1528 1530 1529 1529 1529 1529 1529 1529 1530 1530 1530 1530 1531 1531 1532 1532 1532 1532 1531 1530 1529 1528 1528 1528 1528 1528 1527 1527 1526 1524 1523 1522 1521 1520 1518 1517 1516 1514 1512 1511 1509 1508 1506 1505 1503 1501 1500 1498
1456 1458 1458 1459 1460 1465 1470 1475 1479 1482 1487 1491 1493 1495 1497 1499 1501 1503 1505 1508 1509 1510 1512 1516 1519 1522 1524 1525 1525 1526 1526 1526 1526 1526 1527 1528 1528 1528 1529 1529 1529 1530 1529 1529 1528 1527 1526 1526 1525 1525 1525 1525 1525 1524 1524 1522 1521 1520 1519 1518 1516 1515 1513 1512 1510 1509 1507 1506 1504 1503 1501 1499 1498 1496
1453 1454 1454 1453 1454 1457 1461 1464 1468 1473 1479 1483 1487 1489 1492 1494 1496 1496 1498 1500 1502 1505 1508 1511 1515 1518 1520 1521 1522 1522 1522 1523 1523 1524 1525 1526 1526 1526 1527 1527 1527 1527 1526 1525 1525 1524 1524 1523 1522 1522 1522 1522 1522 1522 1521 1520 1518 1517 1516 1515 1514 1513 1511 1510 1509 1507 1505 1504 1502 1500 1498 1496 1494 1493
1444 1446 1448 1449 1450 1452 1453 1455 1458 1464 1470 1475 1479 1482 1486 1489 1491 1492 1493 1494 1496 1500 1504 1507 1511 1515 1517 1517 1518 1519 1519 1520 1521 1521 1523 1524 1524 1525 1526 1526 1525 1525 1525 1524 1523 1522 1522 1521 1520 1519 1519 1519 1519 1518 1518 1517 1516 1514 1514 1513 1512 1511 1509 1508 1506 1505 1503 1501 1499 1497 1495 1493 1492 1490
1434 1437 1441 1445 1448 1450 1450 1450 1452 1456 1461 1465 1470 1475 1479 1484 1487 1489 1490 1491 1493 1497 1501 1505 1508 1511 1512 1513 1515 1516 1516 1517 1518 1519 1521 1521 1522 1523 1524 1524 1524 1524 1523 1522 1521 1520 1519 1518 1517 1516 1516 1516 1515 1515 1515 1514 1513 1513 1512 1511 1510 1509 1507 1506 1504 1503 1501 1498 1496 1494 1492 1490 1489 1487
1432 1434 1436 1439 1442 1445 1446 1447 1448 1452 1456 1459 1463 1468 1475 1480 1485 1487 1487 1487 1489 1493 1498 1502 1505 1507 1508 1510 1512 1513 1513 1514 1515 1517 1518 1519 1519 1520 1521 1521 1521 1522 1521 1520 1519 1518 1517 1516 1514 1513 1513 1512 1512 1512 1512 1511 1511 1511 1510 1509 1507 1506 1505 1504 1502 1500 1498 1495 1492 1490 1488 1487 1486 1484
1428 1430 1433 1436 1437 1439 1440 1441 1443 1447 1450 1454 1457 1461 1468 1475 1480 1484 1485 1485 1487 1490 1494 1499 1503 1504 1505 1507 1509 1510 1510 1512 1513 1514 1515 1516 1517 1517 1518 1519 1519 1518 1518 1517 1516 1516 1515 1513 1512 1511 1510 1509 1508 1508 1509 1509 1509 1508 1508 1507 1505 1504 1502 1501 1499 1497 1495 1493 1490 1487 1485 1484 1483 1481
1417 1421 1425 1428 1430 1432 1433 1434 1436 1439 1443 1447 1451 1454 1459 1466 1474 1478 1481 1482 1484 1486 1491 1496 1500 1501 1503 1504 1505 1506 1508 1509 1511 1512 1513 1514 1514 1514 1515 1516 1516 1515 1515 1514 1513 1513 1512 1511 1510 1509 1508 1508 1507 1506 1505 1505 1506 1507 1505 1504 1503 1501 1499 1498 1496 1494 1492 1490 1488 1485 1482 1480 1479 1477
1406 1410 1415 1418 1421 1424 1426 1428 1431 1434 1438 1442 1445 1448 1452 1460 1468 1473 1477 1479 1481 1483 1487 1493 1496 1498 1500 1501 1502 1503 1505 1507 1509 1510 1511 1511 1512 1512 1513 1513 1513 1512 1511 1510 1510 1510 1509 1509 1508 1508 1507 1507 1507 1506 1504 1503 1503 1504 1503 1502 1500 1498 1497 1495 1493 1491 1490 1488 1486 1483 1480 1477 1474 1473
1398 1402 1406 1409 1413 1416 1420 1423 1427 1430 1434 1438 1442 1446 1451 1456 1463 1469 1473 1476 1478 1481 1485 1490 1492 1494 1496 1498 1499 1501 1502 1504 1506 1508 1509 1509 1510 1511 1511 1510 1510 1509 1508 1507 1507 1507 1506 1506 1506 1505 1505 1505 1505 1505 1504 1503 1501 1500 1500 1499 1497 1496 1494 1492 1490 1489 1487 1485 1483 1481 1478 1474 1471 1468
1391 1396 1399 1401 1404 1408 1412 1417 1421 1425 1428 1432 1438 1446 1451 1456 1462 1467 1470 1472 1475 1479 1483 1487 1489 1492 1493 1495 1496 1498 1499 1501 1503 1506 1507 1507 1508 1509 1509 1508 1507 1506 1505 1504 1504 1504 1504 1503 1503 1503 1503 1504 1504 1504 1503 1502 1500 1498 1497 1496 1494 1493 1492 1490 1488 1487 1485 1483 1480 1478 1475 1471 1467 1464
1384 1389 1392 1396 1400 1404 1407 1410 1414 1419 1424 1429 1435 1443 1449 1455 1460 1465 1468 1469 1472 1476 1481 1484 1487 1489 1490 1492 1493 1495 1497 1499 1501 1503 1504 1504 1505 1506 1506 1506 1505 1504 1502 1502 1501 1501 1501 1501 1500 1500 1501 1501 1501 1501 1500 1499 1497 1496 1494 1493 1491 1490 1489 1488 1486 1484 1482 1480 1477 1474 1470 1467 1464 1461
1377 1382 1386 1390 1395 1398 1401 1405 1411 1417 1425 1432 1438 1443 1449 1453 1458 1463 1465 1467 1470 1474 1477 1481 1484 1485 1487 1488 1490 1492 1494 1496 1498 1500 1501 1501 1502 1503 1503 1503 1502 1501 1500 1499 1499 1499 1499 1498 1497 1497 1497 1498 1498 1498 1497 1495 1493 1492 1491 1490 1489 1487 1487 1485 1484 1482 1479 1477 1474 1470 1467 1464 1461 1458
1371 1376 1381 1385 1389 1393 1399 1405 1410 1416 1424 1433 1439 1444 1448 1452 1456 1460 1463 1465 1468 1471 1475 1478 1480 1482 1484 1485 1487 1489 1492 1494 1496 1497 1498 1498 1499 1500 1500 1500 1499 1498 1497 1496 1496 1496 1496 1495 1494 1493 1494 1494 1494 1494 1494 1493 1491 1490 1489 1488 1486 1485 1483 1482 1481 1479 1477 1474 1471 1468 1465 1462 1459 1456
1366 1370 1375 1380 1386 1392 1400 1406 1410 1415 1422 1430 1437 1442 1446 1450 1454 1458 1461 1464 1466 1469 1472 1475 1477 1478 1481 1483 1484 1487 1489 1491 1492 1494 1495 1496 1496 1497 1496 1496 1496 1495 1494 1494 1494 1494 1493 1492 1490 1490 1491 1491 1492 1492 1492 1491 1490 1488 1487 1486 1485 1483 1480 1478 1477 1475 1473 1471 1469 1466 1463 1461 1457 1454
1362 1366 1372 1378 1385 1392 1399 1405 1409 1414 1421 1428 1434 1440 1444 1449 1453 1456 1458 1461 1464 1467 1470 1472 1473 1475 1478 1480 1482 1485 1487 1488 1489 1491 1492 1492 1493 1494 1493 1493 1492 1492 1492 1491 1491 1491 1490 1489 1488 1488 1488 1489 1490 1490 1490 1489 1488 1486 1485 1484 1483 1481 1479 1476 1474 1472 1470 1468 1466 1464 1462 1460 1457 1453
1360 1366 1373 1379 1385 1393 1400 1405 1409 1414 1421 1427 1433 1438 1443 1447 1450 1453 1456 1459 1462 1465 1467 1469 1471 1473 1475 1477 1480 1482 1484 1485 1487 1488 1489 1489 1490 1491 1491 1491 1490 1489 1489 1489 1489 1488 1487 1487 1486 1486 1486 1487 1488 1488 1487 1487 1485 1484 1483 1481 1480 1479 1477 1475 1473 1470 1468 1465 1463 1460 1459 1457 1454 1451
1358 1366 1374 1382 1387 1394 1400 1406 1410 1415 1421 1427 1433 1437 1441 1445 1448 1451 1454 1457 1460 1463 1465 1467 1469 1470 1472 1474 1476 1478 1480 1483 1484 1485 1486 1486 1487 1488 1489 1489 1488 1487 1486 1486 1486 1486 1485 1484 1484 1484 1484 1485 1485 1485 1485 1484 1483 1481 1480 1479 1478 1476 1475 1473 1471 1468 1466 1463 1461 1458 1455 1453 1451 1448
Wind_Speed
14 13 14 14 13 12 13 12 11 11 11 10 9 9 8 7 6 4 4 4 3 3 3 4 5 7 6 5 7 6 6 7 7 7 8 8 9 11 12 12 12 11 11 10 9 10 12 13 14 14 15 16 18 19 20 22 23 24 25 25 24 24 23 22 22 23 23 23 23 22 21 21 21 21
16 15 15 15 14 14 14 13 12 13 12 11 10 10 10 9 8 6 5 4 5 5 4 4 5 8 7 6 6 6 7 7 7 7 8 7 8 9 10 11 11 11 11 11 12 12 13 15 16 16 17 18 20 21 22 23 23 25 25 25 25 25 25 24 25 24 24 24 24 24 23 22 21 21
18 18 17 17 16 15 14 13 13 13 12 11 11 11 11 11 9 8 7 5 5 5 4 5 5 6 6 6 6 6 7 7 6 7 8 8 7 8 9 10 9 10 11 11 12 13 15 17 18 19 20 20 21 22 22 22 23 24 25 25 26 26 26 26 27 26 25 24 24 24 23 23 21 21
21 20 19 19 18 16 16 14 14 14 12 12 12 12 12 11 10 9 8 7 6 5 5 5 5 5 6 6 7 7 8 8 7 8 9 8 7 8 9 9 9 9 10 11 13 15 17 19 20 20 20 20 20 20 21 21 21 22 23 25 26 27 27 27 27 27 26 25 24 24 24 23 23 22
22 21 21 20 19 18 17 16 15 14 13 12 12 13 12 12 12 11 10 8 7 6 6 5 5 7 7 7 7 8 8 9 7 8 9 8 8 9 9 9 11 11 10 12 15 16 19 20 21 20 20 19 19 18 19 19 20 21 22 24 25 26 27 27 27 27 27 26 26 25 24 24 24 24
24 23 22 22 21 20 18 17 16 15 14 13 13 14 13 13 13 12 11 10 8 7 7 6 7 8 8 7 8 8 8 9 9 8 9 9 10 10 9 9 13 14 13 13 16 18 20 21 21 20 19 19 18 18 18 19 20 22 23 24 25 25 26 27 27 27 27 26 26 26 26 26 26 26
25 25 25 24 23 22 21 19 17 16 16 15 15 15 15 14 14 13 11 10 10 8 8 7 7 8 8 8 9 9 9 10 11 9 9 10 10 11 11 11 13 15 15 16 18 20 21 21 20 19 19 19 19 19 19 20 22 23 24 25 26 26 26 26 26 27 27 27 28 28 29 29 30 30
27 27 27 26 26 25 24 21 20 18 18 18 17 17 17 15 14 14 13 11 10 10 9 8 8 8 8 9 9 9 9 10 11 11 11 11 11 12 13 12 12 15 16 17 20 21 20 20 19 19 19 20 20 20 20 20 22 24 25 25 25 25 25 25 25 26 27 28 29 30 30 31 31 31
29 28 28 27 28 28 27 24 22 21 20 19 18 18 19 18 15 15 14 12 11 11 10 9 9 9 9 9 10 10 10 10 10 11 12 12 12 13 13 12 13 15 18 19 21 21 20 20 20 20 21 21 21 21 21 21 21 23 23 24 24 24 24 25 26 27 27 28 29 30 31 31 31 31
30 29 29 28 29 30 30 27 25 24 22 21 20 20 20 19 17 16 15 13 12 12 11 10 9 9 9 10 10 11 10 10 11 11 11 11 13 14 13 12 12 14 16 18 20 19 20 21 22 23 23 23 23 23 23 23 22 22 23 25 25 26 27 27 28 29 30 30 30 30 31 31 31 30
32 31 30 30 30 32 31 30 28 27 25 23 22 22 21 20 19 17 16 14 13 12 11 11 10 10 10 10 11 11 12 12 13 13 12 11 11 12 12 13 14 13 14 17 16 17 19 21 22 25 24 23 23 23 23 22 22 21 22 23 24 25 26 27 27 28 29 28 26 25 26 27 28 28
33 33 33 32 32 33 32 31 30 30 28 26 25 24 22 21 21 19 18 16 14 13 12 12 11 10 11 11 11 12 13 14 14 13 12 11 10 10 10 12 16 17 18 17 13 14 19 20 19 22 23 23 23 22 20 18 17 16 18 18 19 20 21 22 22 23 23 23 22 21 21 21 23 24
35 34 34 34 34 34 34 32 31 31 29 28 27 26 25 24 23 22 20 18 16 15 14 13 12 12 12 12 12 12 13 14 14 12 12 13 12 11 10 11 14 18 18 16 12 14 19 20 18 19 18 18 19 18 17 15 13 14 18 19 18 18 18 19 19 20 20 21 21 21 21 20 21 21
36 36 36 36 36 36 36 33 31 30 30 29 28 27 26 25 24 24 22 20 19 17 16 15 14 13 13 13 13 14 14 14 14 12 12 12 11 11 11 11 12 16 16 15 16 20 22 20 18 18 16 15 14 13 13 14 15 18 21 21 20 20 19 20 20 20 21 21 22 23 23 22 22 22
38 38 38 38 38 38 37 35 32 31 30 29 28 27 27 25 24 24 24 22 20 19 17 16 15 14 14 12 13 14 13 12 12 11 10 10 10 10 12 11 11 15 17 18 21 24 22 18 18 18 16 15 13 11 14 18 19 20 22 22 22 22 22 23 22 23 23 24 24 25 25 25 24 24
39 39 38 39 39 39 39 36 34 32 31 30 29 28 26 25 23 23 24 23 21 19 18 16 16 15 14 13 13 13 12 12 12 11 10 9 10 10 11 11 10 11 16 20 22 21 17 15 16 16 14 14 13 12 17 21 21 20 20 20 21 21 21 21 21 21 21 22 24 25 26 26 26 26
40 39 39 39 40 40 39 37 35 34 33 31 30 27 26 25 24 23 24 25 22 20 18 18 17 16 15 14 14 14 14 13 13 12 11 10 10 10 11 10 10 13 18 20 18 16 14 12 13 14 13 13 13 13 18 22 21 19 17 16 15 15 15 15 15 15 15 16 18 19 20 22 22 23
42 41 40 40 41 41 40 38 36 36 35 33 31 29 27 26 26 25 25 26 25 23 21 19 18 18 17 15 15 16 15 14 13 12 11 10 10 12 12 13 15 17 18 15 13 13 13 11 12 14 13 12 13 13 16 21 19 16 14 14 13 12 13 13 14 14 15 15 15 16 17 18 19 19
44 43 42 41 41 40 40 39 38 37 37 34 31 31 30 28 28 28 26 26 26 25 24 22 20 19 19 17 17 16 14 13 12 12 11 11 12 13 13 13 14 13 11 13 14 13 12 11 12 14 12 12 13 13 15 18 17 15 14 14 14 13 14 14 14 15 17 17 17 18 19 19 20 21
46 46 44 43 42 41 40 40 39 38 38 35 32 32 31 30 29 28 27 25 25 24 24 22 20 19 19 19 17 15 13 13 13 12 12 12 12 11 10 9 7 5 7 12 13 11 11 11 12 14 14 13 14 14 13 14 15 17 16 15 14 14 13 14 15 16 18 19 19 19 20 21 21 22
49 49 48 47 44 42 41 41 39 39 38 35 34 33 32 31 29 27 26 25 24 23 24 23 22 21 21 19 17 16 15 15 14 13 11 9 7 7 6 5 4 4 6 8 9 10 11 12 11 13 15 15 14 14 11 10 14 18 18 17 17 16 13 12 13 14 16 17 18 18 18 19 19 20
51 49 49 49 47 44 43 42 40 40 38 35 35 35 32 31 29 26 25 25 23 24 26 24 23 23 22 20 18 17 16 16 15 13 10 7 6 6 5 3 4 6 7 9 13 14 12 11 11 12 14 15 13 11 11 12 14 17 17 17 18 17 16 16 14 12 13 14 15 16 17 18 18 19
53 50 48 49 49 46 44 43 42 41 39 35 36 35 32 31 30 27 26 24 23 24 26 26 24 24 23 21 19 18 16 16 15 13 10 8 8 7 5 4 5 7 7 9 14 14 11 10 11 11 12 14 13 11 12 13 14 15 16 16 16 16 18 19 17 15 14 14 14 15 16 18 19 19
53 51 46 46 49 49 46 44 44 43 39 36 36 36 33 32 31 28 26 26 23 22 25 26 25 24 23 21 20 18 17 16 14 12 10 9 8 7 5 4 6 7 6 9 14 14 13 11 11 10 10 12 14 14 14 14 15 16 16 15 15 15 16 17 16 16 17 17 17 17 17 18 18 17
53 53 46 40 44 49 48 45 45 43 40 36 35 35 33 31 31 28 27 26 23 20 22 23 22 22 22 20 19 18 17 16 14 12 10 9 8 7 5 5 6 6 7 12 16 16 15 12 10 10 10 12 14 15 16 17 16 14 13 14 15 15 15 15 15 15 15 17 18 18 19 20 19 19
53 53 48 43 45 49 48 46 45 44 41 36 34 34 31 30 31 29 27 26 22 19 20 20 19 19 18 17 17 18 17 15 14 12 9 8 8 7 6 7 8 7 8 13 16 16 15 12 9 9 10 12 14 16 17 17 15 13 14 14 14 15 15 15 14 14 14 15 15 17 19 21 21 21
52 52 50 49 50 49 45 45 46 45 42 37 34 33 32 31 31 30 28 27 23 20 20 19 20 20 17 16 18 19 16 15 14 11 10 9 8 8 8 9 10 9 10 13 15 15 14 13 10 9 10 12 14 16 17 16 15 15 15 15 14 15 14 14 14 14 14 14 14 16 18 20 21 23
48 48 48 47 49 48 44 43 45 46 42 37 34 34 32 31 30 29 29 27 24 23 23 23 23 22 18 18 21 20 17 16 14 12 11 10 9 8 9 10 10 11 12 14 15 14 13 12 10 9 10 12 14 15 16 17 17 16 16 16 15 14 14 13 14 14 14 14 15 16 17 18 19 21
38 38 39 40 42 44 43 43 45 44 40 36 35 34 32 31 31 30 31 29 26 27 28 27 24 21 18 20 23 21 19 19 16 12 12 11 10 9 10 11 12 13 14 14 14 12 11 12 11 10 11 12 13 15 16 17 18 17 16 16 16 15 14 13 13 13 14 15 16 16 18 19 20 21
37 36 38 39 41 42 42 45 47 44 39 35 34 33 33 34 33 33 34 33 30 30 30 27 23 19 18 21 24 23 21 19 16 13 12 11 10 10 11 12 12 13 13 12 10 9 10 11 11 11 12 12 13 14 15 17 19 18 17 16 16 15 14 13 13 14 15 15 17 18 20 21 22 21
45 44 43 42 42 42 42 44 44 41 38 37 37 36 37 37 34 34 35 33 31 31 31 27 21 18 20 24 26 24 20 18 16 14 13 12 10 9 10 13 12 11 10 10 10 10 11 12 12 12 12 13 13 14 15 17 18 18 17 15 15 15 14 14 15 15 15 17 19 21 22 22 21 20
50 50 48 45 43 41 39 38 37 37 38 40 41 41 40 37 34 33 35 33 30 30 28 24 21 21 24 27 26 22 19 18 17 15 14 13 12 10 12 14 12 10 10 10 10 11 13 13 13 13 12 13 14 15 15 17 17 16 15 15 14 15 15 15 15 16 17 19 21 22 21 21 20 20
51 49 48 47 45 43 40 38 37 38 40 42 43 41 39 35 33 34 36 34 31 28 26 24 24 27 28 27 25 22 19 18 18 17 16 16 14 13 14 15 13 11 11 10 10 10 11 12 13 14 14 14 15 14 13 14 15 14 13 14 15 15 15 14 15 17 18 20 22 22 22 21 21 21
53 50 48 47 46 46 45 43 42 42 43 45 43 40 37 36 36 37 37 34 29 27 26 26 27 29 29 26 24 21 19 18 18 17 17 17 16 16 16 15 14 13 12 11 10 10 10 11 12 13 14 15 16 16 14 12 12 12 12 13 14 15 16 15 16 17 19 20 21 22 23 23 23 22
58 54 52 52 51 50 49 47 46 46 45 45 43 40 39 41 41 39 37 33 29 28 28 28 29 30 28 26 23 20 18 17 16 15 16 15 16 17 17 15 14 13 11 11 10 10 10 10 10 10 11 12 14 16 16 13 11 10 12 13 14 15 16 16 17 18 19 19 19 21 24 25 25 24
59 57 56 56 55 53 51 48 47 45 45 45 44 43 44 43 42 40 37 33 30 29 29 30 31 30 28 25 22 19 18 17 15 15 16 16 16 17 17 16 15 14 12 12 11 10 10 9 8 8 10 10 12 14 13 12 11 11 12 13 14 16 16 17 17 18 18 18 19 21 24 27 28 27
59 57 57 57 56 53 51 49 46 45 46 46 44 44 44 44 42 40 36 31 30 30 30 31 32 30 27 23 21 19 18 17 16 16 17 16 16 17 17 16 15 15 13 12 11 10 10 9 8 8 8 9 12 13 11 10 12 14 14 15 16 16 16 17 17 18 18 19 21 22 24 27 30 31
60 57 57 58 57 56 53 50 48 48 47 44 42 42 42 39 38 37 34 31 30 30 30 31 31 29 25 22 20 19 18 16 16 18 18 17 17 19 18 16 15 14 12 11 10 10 10 9 8 8 8 9 11 12 11 12 14 15 16 17 16 15 15 16 17 19 20 21 22 24 26 28 30 31
61 60 59 58 56 54 52 51 50 48 44 42 43 43 39 35 35 35 34 31 29 30 31 31 29 26 24 22 21 19 17 15 17 19 19 19 19 19 18 16 14 13 12 11 11 11 11 10 9 9 8 9 12 13 14 17 17 16 15 15 13 13 14 15 17 20 22 23 24 26 27 28 28 29
60 60 59 57 55 54 53 51 47 41 39 40 41 39 36 36 37 37 34 31 30 30 32 31 27 25 24 23 21 18 16 16 19 20 19 18 18 18 18 16 14 13 13 12 11 12 11 10 10 11 10 11 14 15 16 17 18 16 14 13 13 15 16 17 18 20 23 25 26 27 27 26 25 26
59 58 56 54 54 53 50 46 40 37 37 38 38 37 37 39 39 35 31 29 29 30 32 31 28 26 25 23 20 18 16 17 20 20 19 18 18 18 18 17 15 14 13 12 12 11 10 11 13 13 12 13 13 13 14 15 15 14 13 14 16 17 18 19 20 21 24 26 26 25 25 25 26 27
58 56 53 51 51 50 47 42 38 37 37 36 37 39 41 39 35 31 28 27 28 30 31 30 29 28 24 20 18 17 17 19 20 19 18 18 17 17 19 19 16 15 13 13 12 11 10 12 14 12 11 10 10 11 13 14 15 15 15 14 14 16 18 20 21 22 25 26 25 24 24 25 26 28
54 52 50 49 49 46 42 38 36 35 36 38 40 41 39 36 33 30 29 28 29 30 30 29 28 27 24 18 17 17 18 19 19 19 18 18 17 17 18 17 16 14 13 12 12 11 10 11 10 8 7 9 10 12 14 15 15 15 15 14 13 14 17 18 19 21 24 25 24 23 24 24 25 27
50 49 47 46 42 37 33 33 34 36 37 40 40 39 36 35 33 31 30 30 30 31 31 27 25 24 22 19 18 20 20 19 19 18 18 17 17 17 17 15 14 14 13 12 12 11 10 9 8 7 8 10 11 12 14 15 15 15 15 15 14 14 14 14 16 19 21 21 21 22 24 25 27 30
50 47 43 38 34 32 32 34 36 37 38 39 38 37 36 35 33 31 31 31 31 31 29 25 22 21 20 19 20 20 19 19 19 18 17 17 17 17 17 16 15 14 13 12 12 11 9 9 8 8 9 10 11 13 14 15 15 15 15 14 14 14 13 13 15 18 19 19 19 20 23 26 29 30
Wind_Direction
231 225 230 227 216 213 215 211 210 212 212 209 210 210 211 217 222 225 230 225 220 222 234 246 265 276 272 263 261 244 229 237 234 234 241 242 244 243 242 250 256 255 256 262 276 293 306 312 311 307 302 298 295 292 291 290 289 287 285 283 282 282 282 283 285 286 285 284 285 286 287 289 289 287
231 224 225 228 223 220 224 219 212 217 218 210 208 208 209 213 215 223 233 229 218 219 225 238 271 282 272 257 255 244 231 233 230 238 243 237 246 251 248 253 256 257 262 269 280 293 305 309 308 304 300 296 293 290 288 287 286 286 286 284 283 283 284 285 286 287 284 281 280 280 282 285 286 286
232 227 224 226 225 223 227 224 217 223 224 213 208 207 209 214 217 223 233 235 228 219 222 232 248 268 267 251 241 236 240 241 231 238 245 244 253 260 257 257 260 267 274 279 287 297 305 307 305 303 299 296 293 289 287 286 285 285 285 285 285 285 286 287 287 287 285 283 280 277 279 282 283 284
233 230 228 229 228 225 227 225 221 226 228 219 212 208 211 216 218 221 228 236 240 230 226 233 238 246 249 247 241 235 240 246 236 241 254 254 254 262 265 265 270 279 285 287 292 298 304 306 305 303 300 297 294 290 288 286 284 282 282 283 284 284 285 286 286 286 285 284 282 279 279 281 283 284
234 233 231 231 230 228 227 226 224 226 230 226 218 215 213 213 216 219 222 229 240 238 233 230 225 229 235 244 250 238 237 250 245 239 254 260 260 267 271 273 279 285 287 288 293 301 306 308 308 306 304 302 299 296 292 288 285 283 280 279 280 280 281 283 284 284 283 282 282 281 280 281 283 284
234 235 233 232 232 229 227 227 224 222 228 228 222 221 216 210 214 221 220 220 226 233 239 235 228 237 240 236 243 239 228 238 243 240 253 262 265 270 270 271 278 283 288 294 298 305 309 310 310 309 307 305 304 301 296 292 288 285 282 280 280 279 279 279 281 281 281 280 280 281 281 282 283 283
233 235 234 234 235 232 228 228 225 221 224 226 222 222 222 213 212 221 222 216 216 220 229 229 224 238 248 238 240 244 231 234 245 250 256 265 271 277 280 280 277 280 292 302 304 308 312 312 311 309 306 306 304 301 297 293 289 285 283 283 283 282 281 280 279 278 277 277 276 277 278 280 281 282
233 234 235 234 236 236 232 229 227 223 223 227 225 223 226 224 215 216 222 222 218 216 218 222 218 223 239 243 245 249 244 244 251 254 258 267 276 282 288 288 280 284 296 302 305 311 313 311 309 307 306 305 302 299 295 291 288 285 283 283 283 282 282 280 278 277 276 275 275 275 275 276 277 277
235 235 235 235 236 238 236 232 229 227 226 228 229 226 228 231 223 216 221 228 227 220 214 218 225 231 240 244 248 252 252 248 250 254 260 266 272 277 284 285 283 291 302 306 310 315 316 312 309 308 306 304 301 299 296 290 286 283 283 282 281 279 278 277 276 275 273 273 273 274 275 275 275 274
235 236 236 236 237 238 238 235 232 231 230 229 229 230 229 231 230 224 224 230 233 230 222 218 226 238 244 245 248 253 253 249 249 255 262 268 273 278 282 285 289 297 305 310 315 318 316 313 309 308 307 303 301 300 299 294 289 283 280 279 278 278 277 276 276 275 275 273 273 273 273 275 276 276
234 236 235 235 237 238 238 237 235 233 232 230 229 230 230 230 230 228 227 232 236 234 228 224 228 235 241 245 248 252 254 254 255 258 261 262 267 273 278 286 296 300 302 307 313 311 308 308 308 310 310 305 303 302 298 294 291 286 280 277 276 277 277 276 276 276 277 278 278 277 275 274 275 277
233 235 235 235 236 238 238 237 237 235 233 232 231 231 230 230 230 228 228 233 235 230 224 225 228 230 237 243 243 246 255 259 257 257 258 259 266 273 277 287 298 304 306 308 307 300 303 308 310 309 308 306 307 308 305 302 301 295 287 281 279 278 277 277 277 277 278 281 284 284 281 277 276 278
232 233 235 235 236 238 238 237 237 238 235 233 233 232 231 230 230 229 229 230 229 225 221 223 226 227 234 239 238 236 243 251 253 252 257 267 275 277 275 282 294 302 308 308 300 300 307 311 309 305 304 304 306 310 313 314 307 292 287 288 287 285 282 280 280 281 282 283 285 286 285 282 279 278
232 232 235 237 237 238 239 237 237 238 237 233 233 235 235 234 234 231 228 227 227 223 220 221 223 226 230 235 237 237 238 242 248 250 257 268 274 276 280 287 294 299 305 305 303 311 316 315 311 311 310 303 301 306 302 288 275 274 282 288 290 287 285 283 282 283 283 283 284 284 284 282 280 277
233 232 234 237 238 238 239 238 237 237 237 234 231 234 238 239 238 235 230 227 226 224 222 221 221 224 227 229 234 242 244 244 246 248 254 266 272 276 282 290 294 296 301 304 308 316 321 317 316 319 316 309 306 300 283 276 278 284 288 289 289 287 285 284 282 281 281 280 280 280 280 279 278 277
236 234 234 236 238 239 238 238 237 236 236 235 231 232 237 240 239 237 234 231 229 227 225 223 222 224 226 229 236 242 243 241 244 249 256 267 273 271 276 286 287 287 296 306 312 317 320 318 316 316 312 308 305 292 284 290 300 303 299 296 294 293 291 290 287 284 281 279 277 277 277 276 276 276
239 238 236 237 238 239 238 237 237 237 236 235 231 230 234 238 239 237 235 234 233 233 232 229 228 229 229 232 237 240 240 241 246 253 260 266 266 265 273 282 282 286 297 306 311 315 320 317 309 306 304 299 297 292 293 300 308 310 308 308 306 304 304 304 302 299 293 286 283 281 280 280 280 281
242 241 240 238 239 240 239 236 236 237 237 234 232 231 231 235 239 239 238 235 232 231 233 235 236 237 238 237 239 243 248 253 254 255 258 259 259 268 279 287 296 305 308 308 309 313 317 313 302 302 303 297 295 295 294 300 308 314 317 319 318 314 313 311 308 306 302 297 293 290 289 289 289 289
242 243 242 241 241 241 240 237 235 237 238 235 231 232 234 236 240 243 243 239 234 231 235 239 240 241 242 239 241 248 252 253 252 250 252 256 263 275 286 296 311 319 306 299 306 308 309 310 304 302 303 298 296 297 296 300 310 320 324 322 318 313 308 303 298 293 289 289 288 288 288 289 290 291
241 243 243 242 241 240 240 239 236 237 239 237 232 232 235 237 240 246 248 243 237 235 237 238 235 236 239 238 240 246 249 249 250 250 254 263 270 279 289 300 316 311 285 295 305 303 304 309 306 302 303 300 298 301 304 302 304 315 324 325 319 315 308 301 293 286 281 279 279 281 284 287 290 291
239 241 241 241 240 240 239 238 236 237 239 239 236 233 235 238 240 243 246 244 239 234 234 234 231 230 235 238 240 246 249 250 251 249 253 260 260 260 276 294 292 280 284 287 283 288 303 308 304 302 304 305 306 308 308 297 296 310 325 329 325 323 320 312 302 293 286 281 280 283 288 293 295 295
238 239 240 240 239 239 239 237 235 236 238 239 238 234 234 238 239 236 237 240 238 233 231 230 230 232 236 238 242 247 248 248 248 246 244 236 218 221 245 268 272 283 288 269 266 284 306 308 304 304 305 309 312 308 302 296 297 307 317 320 318 317 318 319 317 307 300 295 291 291 295 299 300 301
238 239 240 240 239 238 238 238 235 235 237 237 237 235 233 234 236 232 229 232 236 233 229 228 229 232 234 237 242 245 246 245 244 242 236 221 210 219 235 248 263 280 289 272 274 292 309 306 304 308 307 309 309 306 305 303 303 306 306 306 308 310 312 317 321 318 314 309 303 297 295 297 298 301
237 238 239 240 239 237 236 237 236 235 236 236 236 235 232 233 236 231 224 227 235 235 230 229 231 231 233 238 241 242 242 242 239 237 233 223 221 227 228 236 258 272 277 267 274 292 305 302 301 304 303 303 303 305 309 306 303 305 304 303 306 307 308 312 315 314 311 308 308 307 304 300 298 299
237 238 238 237 238 237 235 234 235 236 236 236 236 235 233 235 236 228 219 224 234 232 226 227 229 229 232 236 237 238 241 239 234 235 235 227 226 232 226 227 246 262 268 264 272 290 301 299 296 299 300 299 299 303 306 306 306 306 303 302 303 303 305 308 307 305 302 302 306 307 304 303 302 300
237 238 238 238 240 240 237 233 234 237 237 236 235 235 234 233 232 225 219 224 230 223 217 221 222 224 228 228 227 232 236 233 229 231 232 225 222 223 225 233 244 251 261 272 286 300 304 297 293 295 297 297 298 301 304 306 308 306 303 304 303 301 304 306 305 304 301 299 300 300 300 305 308 307
237 236 237 238 241 242 240 234 233 236 238 237 234 233 233 232 230 225 222 225 224 214 211 218 221 224 226 221 221 224 222 218 220 219 216 222 232 237 243 256 266 269 274 288 301 306 303 299 296 292 292 294 297 300 302 303 305 305 305 305 304 303 304 304 304 306 304 302 302 301 303 308 311 311
236 235 234 236 238 239 238 234 233 235 238 236 234 233 231 229 226 221 219 221 218 210 212 221 225 225 222 216 219 222 213 208 215 213 210 224 245 255 261 269 276 281 288 299 305 302 295 294 291 286 287 289 291 294 297 299 301 303 305 305 305 305 303 302 304 306 307 308 307 305 306 306 306 305
231 230 228 228 232 235 234 231 231 234 236 235 231 229 226 222 218 214 213 215 214 212 217 223 223 220 217 215 219 220 212 210 217 219 219 232 248 259 265 270 275 282 292 301 304 295 284 284 285 284 285 286 286 288 291 294 297 299 301 302 304 306 304 302 304 306 307 309 308 306 306 305 304 302
228 225 222 223 229 231 228 226 228 230 230 227 223 221 221 219 214 209 208 212 214 213 215 218 216 214 216 215 215 216 214 216 222 224 227 238 248 253 260 265 273 282 287 289 288 274 266 273 281 285 289 291 287 284 285 289 292 295 298 299 301 305 306 304 304 306 307 308 306 305 304 304 304 302
230 227 225 226 231 231 225 222 223 224 222 218 215 215 215 215 212 207 207 212 214 212 212 214 213 211 213 213 213 214 216 219 223 226 231 237 236 239 251 256 262 270 266 259 258 258 262 271 277 283 291 295 293 289 287 286 286 290 295 298 299 302 304 305 306 307 308 307 306 306 306 306 305 302
228 227 225 225 227 228 224 219 215 214 213 212 212 212 210 209 208 206 206 210 212 211 211 212 208 205 208 212 213 214 215 219 224 227 233 236 231 227 237 245 250 256 257 253 252 257 268 279 285 290 297 299 300 300 295 288 285 286 290 294 298 300 302 305 307 308 308 309 309 309 309 308 306 304
225 224 223 222 222 222 221 217 212 209 207 206 206 205 204 203 204 204 205 207 207 206 208 208 205 205 209 212 212 211 214 219 224 228 235 240 238 231 230 237 247 253 255 256 255 256 262 270 280 292 305 310 312 313 304 289 283 283 287 293 299 301 302 304 306 308 309 311 311 310 309 308 308 307
223 222 220 219 220 220 219 216 212 208 204 200 197 196 198 202 204 205 206 206 202 202 209 212 211 211 212 211 210 211 215 219 222 230 239 242 241 240 237 239 247 251 250 253 258 258 258 264 278 296 311 317 315 314 308 292 278 278 287 295 298 299 302 305 306 308 311 312 312 311 309 309 310 308
220 220 219 219 220 221 219 215 212 208 201 197 195 194 197 202 204 204 204 202 198 202 211 215 216 215 212 212 213 213 212 213 217 228 238 238 238 242 242 239 243 247 245 249 255 255 256 264 279 294 303 305 300 297 295 286 272 273 287 296 299 300 302 305 306 309 312 314 313 311 310 310 310 310
217 216 217 217 217 217 216 213 210 204 198 195 196 197 197 198 201 202 202 198 197 204 210 212 213 212 211 212 215 211 208 210 212 222 235 238 236 238 239 237 240 243 243 247 251 249 250 257 268 280 291 298 297 294 292 286 282 285 290 295 300 301 302 304 307 310 313 313 312 312 311 310 310 311
213 213 214 214 215 214 211 208 205 200 196 196 198 199 199 198 198 199 199 197 200 207 210 209 209 211 211 211 210 207 208 212 214 220 232 239 237 235 236 236 237 240 241 242 241 238 241 249 256 267 279 288 291 293 293 289 293 298 297 297 300 301 302 305 308 311 312 312 312 312 310 308 309 312
214 212 211 210 211 210 207 205 203 198 197 198 201 202 201 198 197 197 198 200 204 208 208 207 208 211 211 208 206 205 207 213 219 225 231 236 237 237 237 235 236 237 237 235 235 235 238 241 245 254 265 274 281 287 290 288 290 293 295 300 305 301 298 303 309 312 314 313 312 312 311 310 311 315
214 213 210 207 207 206 204 202 199 197 196 198 200 200 198 197 197 198 200 203 204 206 207 206 207 209 209 206 206 208 208 214 224 230 230 230 232 235 235 234 235 233 230 230 233 233 234 237 239 243 250 259 268 276 281 284 288 293 300 308 310 302 297 302 308 312 315 316 314 314 315 314 315 317
209 210 208 205 203 201 199 196 193 193 196 197 198 198 198 196 197 200 203 202 200 202 205 204 204 206 206 206 208 209 211 220 228 229 227 224 225 229 231 231 232 228 226 228 230 230 232 234 234 238 249 263 273 279 282 285 293 303 309 307 303 300 300 301 304 310 316 320 319 318 317 316 315 316
203 204 201 199 197 195 193 191 189 191 195 198 199 198 196 196 199 202 204 201 199 202 204 203 204 207 207 207 210 212 215 223 227 225 222 222 224 227 228 227 226 226 226 227 228 228 227 226 233 248 270 284 287 287 283 283 288 295 297 296 296 299 300 301 304 311 318 323 323 319 317 317 317 317
200 197 194 192 191 189 188 187 187 189 193 197 198 195 193 196 201 201 199 200 203 204 203 203 208 211 208 205 212 217 218 220 221 219 219 222 223 225 225 225 226 226 226 225 225 224 225 234 247 267 286 288 278 272 271 274 281 288 291 295 298 299 301 304 308 313 318 324 324 319 316 318 318 317
193 189 187 186 184 182 183 184 185 187 192 196 196 193 193 197 199 197 197 202 206 205 203 204 209 212 208 204 213 219 216 213 215 216 217 219 220 221 224 226 226 223 222 223 226 227 230 242 257 272 274 264 260 262 266 273 281 287 290 293 294 296 300 305 309 312 317 323 323 318 315 316 314 312
185 182 181 177 173 171 174 179 183 189 194 195 194 193 194 196 196 197 201 205 206 205 204 203 207 210 207 204 208 213 212 212 215 216 216 217 219 221 223 224 222 220 221 225 229 232 232 237 247 254 256 257 257 259 266 273 279 283 288 291 292 295 299 302 306 311 316 320 319 315 315 317 318 318
177 174 169 165 164 166 171 178 186 193 194 193 191 192 193 194 196 199 203 206 208 207 203 201 201 203 202 201 204 208 210 212 214 214 214 217 219 221 223 224 222 222 224 227 228 229 230 234 241 249 254 256 258 261 267 273 276 280 285 287 291 297 300 302 307 313 317 318 318 316 316 318 323 325